Regional Weather Roundup
Issued by NWS

Home | Current Version | Previous Version | Graphics & Text | Print | Product List | Glossary On
Versions: 1 2 3 4 5 6 7 8 9 10 11 12 13 14 15 16 17 18 19 20 21 22 23 24 25 26 27 28 29 30 31 32 33 34 35 36 37 38 39 40 41 42 43 44 45 46 47 48 49 50
000
ASUS43 KMKX 201511
RWRWI

WISCONSIN REGIONAL WEATHER ROUNDUP
NATIONAL WEATHER SERVICE MILWAUKEE/SULLIVAN WI
1000 AM CDT WED SEP 20 2017

NOTE: "FAIR" INDICATES FEW OR NO CLOUDS BELOW 12,000 FEET WITH NO
SIGNIFICANT WEATHER AND/OR OBSTRUCTIONS TO VISIBILITY.

WIZ001-002-006>008-014>016-023>028-201600-
NORTHWEST WISCONSIN

CITY           SKY/WX    TMP DP  RH WIND       PRES   REMARKS
SUPERIOR ARPT  CLOUDY    65  64  97 CALM      29.65R
ASHLAND        CLOUDY    68  63  84 SE13      29.68F
HAYWARD        CLOUDY    67  63  87 SE12      29.70S
SIREN          CLOUDY    71  65  83 S10G18    29.68R
CUMBERLAND     CLOUDY    66  63  88 SE12      29.71R
RICE LAKE      CLOUDY    69  64  84 SE13      29.73S
CHETEK         CLOUDY    67  65  93 SE10G17   29.73R
LADYSMITH      CLOUDY    68  64  87 S9        29.77R
EAU CLAIRE     CLOUDY    71  65  81 S13       29.72R
MENOMONIE      PTSUNNY   71  67  89 SE8       29.71S
NEW RICHMOND   CLOUDY    72  64  78 S12       29.70R
OSCEOLA        CLOUDY    73  66  80 SW14G20   29.72R
$$

WIZ003>005-009-010-017-018-201600-
NORTH CENTRAL WISCONSIN

CITY           SKY/WX    TMP DP  RH WIND       PRES   REMARKS
MANITOWISH WTR CLOUDY    63  63 100 SE12G17   29.79F
ARBOR VITAE    CLOUDY    64  62  92 SE15G23   29.80F
WOODRUFF       CLOUDY    64  62  92 SE15G23   29.80F
RHINELANDER    CLOUDY    63  63 100 SE9G18    29.84F
EAGLE RIVER    CLOUDY    62  62  98 SE9       29.82F
LAND O LAKES   CLOUDY    62  61  96 SE10      29.84F
PHILLIPS       CLOUDY    64  63  98 SE8       29.77S
TOMAHAWK         N/A     62  60  95 SE7       29.82S FOG
MEDFORD        CLOUDY    64  62  93 SE10G17   29.79F FOG
MERRILL        CLOUDY    63  63 100 SE9       29.83F FOG
$$

WIZ029-030-035-036-043>047-201600-
CENTRAL WISCONSIN

CITY           SKY/WX    TMP DP  RH WIND       PRES   REMARKS
WAUSAU         CLOUDY    64  63  96 E10       29.81F FOG
MOSINEE        CLOUDY    64  64 100 SE5       29.84F FOG
MARSHFIELD     PTSUNNY   68  62  81 SE14      29.79F
STEVENS POINT  CLOUDY    65  65 100 SE9       29.83S FOG
WAUPACA        PTSUNNY   73  66  80 S12       29.85R
WAUTOMA        LGT RAIN  69  66  90 SE7G21    29.84S
WISC RAPIDS    MOSUNNY   72  66  81 S9G18     29.82S
CAMP DOUGLAS   MOSUNNY   73  66  78 S8        29.79F
$$

WIZ011>013-019>022-031-037>040-048>050-201600-
NORTHEAST WISCONSIN

CITY           SKY/WX    TMP DP  RH WIND       PRES   REMARKS
ANTIGO         CLOUDY    60  60 100 SE13      29.87F FOG
SHAWANO        CLOUDY    69  64  84 SE6       29.89R
OCONTO         CLOUDY    67  64  91 SE9G17    29.89F
STURGEON BAY   CLOUDY    66  64  93 SE16      29.92S FOG
GREEN BAY      CLOUDY    71  67  87 SE20G28   29.87F
MANITOWOC      CLOUDY    67  65  93 SE15      29.92R FOG
APPLETON       PTSUNNY   72  66  83 SE12G21   29.87R
CLINTONVILLE   CLOUDY    68  63  83 E5        29.89R
OSHKOSH        MOSUNNY   73  66  78 SE14      29.86S
$$

WIZ032>034-041-042-053>061-201600-
SOUTHWEST WISCONSIN

CITY           SKY/WX    TMP DP  RH WIND       PRES   REMARKS
LA CROSSE      SUNNY     77  66  68 S20G25    29.73F
SPARTA         MOSUNNY   74  66  75 S16       29.76F
VIROQUA        SUNNY     74  67  80 S10G16    29.80S
BOSCOBEL       SUNNY     78  66  66 S10       29.79F HX  80
PRAIRIE DU CHI SUNNY     77  64  65 S7        29.78S
PLATTEVILLE    SUNNY     76  70  80 S16       29.83F
$$

WIZ056-057-062-063-064-067-068-201600-
SOUTH CENTRAL WISCONSIN

CITY           SKY/WX    TMP DP  RH WIND       PRES   REMARKS
REEDSBURG      MOSUNNY   72  67  85 S8        29.80F
BARABOO/DELLS  MOSUNNY   71  64  78 S14       29.82S
LONE ROCK      SUNNY     76  68  76 S9        29.81F
MINERAL POINT  SUNNY     75  70  83 S13       29.83F
MADISON        CLOUDY    75  66  73 S15       29.84F
MIDDLETON        N/A     76  66  69 S14       29.85S
WATERTOWN      MOSUNNY   75  68  78 SE10      29.88S
MONROE         SUNNY     73  64  73 S14       29.86S
JANESVILLE     PTSUNNY   77  66  69 S9        29.87R
$$

WIZ051-052-058>065-066-070>072-201600-
SOUTHEAST WISCONSIN

CITY           SKY/WX    TMP DP  RH WIND       PRES   REMARKS
MILWAUKEE      CLOUDY    71  68  90 SE14      29.90S FOG
WAUKESHA       SUNNY     72  64  78 SE12      29.91S
MILWAUKEE/TIMM PTSUNNY   70  64  83 SE10G17   29.91S
RACINE         PTSUNNY   71  68  90 SE14      29.92S FOG
BURLINGTON     SUNNY     76  68  76 S9        29.90R
KENOSHA        SUNNY     75  67  76 SE12      29.91S
FOND DU LAC    CLOUDY    72  64  76 SE18G25   29.86S
SHEBOYGAN      CLOUDY    70  68  93 S13       29.91S
WEST BEND        N/A     68  68 100 SE8       29.91R
JUNEAU         CLOUDY    73  65  78 SE14G21   29.88F
$$

LSZ147-162-201600-
LAKE SUPERIOR

STATION/POSITION TIME  TEMP    WIND        PRES    WAVE
                       AIR SEA DIR/SP/G            HT/PER
                 (UTC) (F)     (DEG/KT/KT) (MB)    (FT/S)
W MID LAKE BUOY  1450   59 54  120/ 14/ 16 1005.4F   3/ 4
DEVILS ISLAND    1500   65     150/ 12/ 20 1004.5F
PORT WING        1340   65     140/  6/ 14 1004.7S
SAXON HARBOR     1430   69     180/  8/ 18 1004.7R
$$

LMZ867-665-643>646-201600-
LAKE MICHIGAN

STATION/POSITION TIME  TEMP    WIND        PRES    WAVE
                       AIR SEA DIR/SP/G            HT/PER
                 (UTC) (F)     (DEG/KT/KT) (MB)    (FT/S)
S GREEN BAY BUOY 1500   67 66  140/ 16/ 19 1011.8
N MID LAKE BUOY  1450   65 64  150/ 12/ 16 1014.3F   2/ 4
NORTHPORT PIER   1440   65     150/ 13/ 17 1013.5S
KEWAUNEE LAKESHO 1448   63     160/  9/ 10 1012.4R
SHEBOYGAN LAKESH 1500   65     160/ 13/ 14 1012.6R
PORT WASHINGTON  1440   70     150/ 11/ 16 1013.5F
ATWATER BUOY     1409   68 68  150/ 16/ 19 1012.6F
MILWAUKEE LAKESH 1450   67     150/ 13/ 15   N/A
S MID LAKE BUOY  1450   66 68  100/ 16/ 17 1013.5F   2/ 3
KENOSHA   LAKESH 1500   69     160/ 14/ 15 1012.9
$$

TC  - TEMPERATURE IN CELSIUS
VSB - VISIBILITY IN STATUTE MILES
WCI - WIND CHILL INDEX
HX  - HEAT INDEX





USA.gov is the U.S. government's official web portal to all federal, state and local government web resources and services.